Terrell, TX

5:14 AM CDT on August 17, 2017 (GMT -0500)
Terrell Municipal

Weather History for KTRL - November, 2012

Change the Weather History Date:

Friday, November 2, 2012

  Actual Average (KGVT) Record (KGVT)
Temperature  
Mean Temperature 70 °F -  
Max Temperature 86 °F 67 °F 86 °F (2012)
Min Temperature 55 °F 53 °F 35 °F (2006)
Cooling Degree Days 6    
Growing Degree Days 20 (Base 50)    
Moisture  
Dew Point 53 °F    
Average Humidity 59    
Maximum Humidity 86    
Minimum Humidity 27    
Precipitation  
Precipitation 0.00 in - - ()
Sea Level Pressure  
Sea Level Pressure 29.95 in    
Wind  
Wind Speed 6 mph (South)    
Max Wind Speed 17 mph    
Max Gust Speed 22 mph    
Visibility 10 miles    
Events      
Averages and records for this station are not official NWS values.
T = Trace of Precipitation, MM = Missing Value Source: NWS Daily Summary

Daily Weather History Graph

Daily Weather History Graph

Search for Another Location

Airport or City:

Trip Planner

Search our weather history database for the weather conditions in past years. The results will help you decide how hot, cold, wet, or windy it might be!

Date:

Astronomy

Nov. 02, 2012 Rise Set
Actual Time 7:44 AM CDT 6:32 PM CDT
Civil Twilight 7:18 AM CDT 6:58 PM CDT
Nautical Twilight 6:49 AM CDT 7:27 PM CDT
Astronomical Twilight 6:20 AM CDT 7:56 PM CDT
Moon 9:27 PM CDT (11/2) 10:58 AM CDT (11/2)
Length of Visible Light 11h 39m
Length of Day
10h 48m
Waning Gibbous, 87% of the Moon is Illuminated
Nov 2
Waning Gibbous
Nov 6
Last Quarter
Nov 13
New
Nov 20
First Quarter
Nov 28
Full

Hourly Weather History & Observations

Time (CDT) Temp. Heat Index Dew Point Humidity Pressure Visibility Wind Dir Wind Speed Gust Speed Precip Events Conditions
12:53 AM 66.0 °F - 53.1 °F 63% 29.94 in 10.0 mi SSW 5.8 mph - N/A   Clear
1:53 AM 64.0 °F - 53.1 °F 67% 29.94 in 10.0 mi SSW 3.5 mph - N/A   Clear
2:53 AM 62.1 °F - 53.1 °F 72% 29.94 in 10.0 mi Calm Calm - N/A   Clear
3:53 AM 61.0 °F - 53.1 °F 75% 29.94 in 10.0 mi South 4.6 mph - N/A   Clear
4:53 AM 59.0 °F - 52.0 °F 78% 29.95 in 10.0 mi South 3.5 mph - N/A   Clear
5:53 AM 55.9 °F - 51.1 °F 84% 29.96 in 10.0 mi Calm Calm - N/A   Clear
6:53 AM 55.0 °F - 51.1 °F 86% 29.97 in 10.0 mi Calm Calm - N/A   Clear
7:53 AM 55.0 °F - 51.1 °F 86% 29.98 in 10.0 mi Calm Calm - N/A   Clear
8:53 AM 60.1 °F - 55.0 °F 83% 30.00 in 10.0 mi Calm Calm - N/A   Clear
9:53 AM 70.0 °F - 57.0 °F 63% 30.01 in 10.0 mi SW 9.2 mph - N/A   Clear
10:53 AM 75.0 °F - 57.0 °F 53% 30.01 in 10.0 mi SW 11.5 mph 19.6 mph N/A   Clear
11:53 AM 81.0 °F 80.8 °F 55.9 °F 42% 30.00 in 10.0 mi SW 11.5 mph - N/A   Clear
12:53 PM 84.0 °F 83.0 °F 55.9 °F 38% 29.98 in 10.0 mi WSW 11.5 mph 20.7 mph N/A   Clear
1:53 PM 86.0 °F 84.5 °F 55.0 °F 35% 29.95 in 10.0 mi South 17.3 mph 20.7 mph N/A   Clear
2:53 PM 86.0 °F - 52.0 °F 31% 29.93 in 10.0 mi South 12.7 mph 19.6 mph N/A   Clear
3:53 PM 86.0 °F - 48.0 °F 27% 29.91 in 10.0 mi SSW 12.7 mph 21.9 mph N/A   Clear
4:53 PM 84.9 °F - 48.0 °F 28% 29.91 in 10.0 mi South 12.7 mph - N/A   Clear
5:53 PM 82.0 °F 81.2 °F 53.1 °F 37% 29.91 in 10.0 mi SSE 12.7 mph - N/A   Clear
6:53 PM 75.0 °F - 54.0 °F 48% 29.92 in 10.0 mi SSE 6.9 mph - N/A   Clear
7:53 PM 71.1 °F - 51.1 °F 49% 29.94 in 10.0 mi SSE 6.9 mph - N/A   Clear
8:53 PM 68.0 °F - 54.0 °F 61% 29.94 in 10.0 mi South 5.8 mph - N/A   Clear
9:53 PM 66.9 °F - 55.0 °F 66% 29.96 in 10.0 mi SSE 5.8 mph - N/A   Clear
10:53 PM 64.9 °F - 55.9 °F 73% 29.96 in 10.0 mi South 5.8 mph - N/A   Clear
11:53 PM 64.9 °F - 57.0 °F 75% 29.96 in 10.0 mi South 6.9 mph - N/A   Clear